When you browse on this site, cookies collect data to enhance your experience and personalize the content and advertising you see.
Visit our Privacy Policy to learn more. By continuing to use the site, you agree to this use of cookies and data.
  • In Hungary
  • List of Countries
  • For 7 days
  • Water Temperature
  • Satellite Maps
  • Weather Map
  • News
  • Weather Widgets
  • user-avatar
    Login

    Hourly Weather Tamerza

    Today, 19 April, Friday

    Time Temperature Precipitation Wind Pressure Humidity
    00:00 +22°C° 0 mm 8 mps 729 mmHg 42%
    01:00 +20°C° 0 mm 8 mps 729 mmHg 44%
    02:00 +19°C° 0 mm 9 mps 729 mmHg 46%
    03:00 +18°C° 0 mm 9 mps 729 mmHg 49%
    04:00 +17°C° 0 mm 10 mps 729 mmHg 51%
    05:00 +17°C° 0 mm 10 mps 729 mmHg 53%
    06:00 +17°C° 0 mm 10 mps 729 mmHg 54%
    07:00 +17°C° 0 mm 11 mps 729 mmHg 56%
    08:00 +18°C° 0 mm 11 mps 729 mmHg 52%
    09:00 +21°C° 0 mm 11 mps 729 mmHg 47%
    10:00 +22°C° 0 mm 12 mps 729 mmHg 42%
    11:00 +24°C° 0 mm 12 mps 729 mmHg 39%
    12:00 +26°C° 0 mm 12 mps 729 mmHg 35%
    13:00 +27°C° 0 mm 12 mps 729 mmHg 32%
    14:00 +27°C° 0 mm 13 mps 729 mmHg 32%
    15:00 +27°C° 0 mm 13 mps 728 mmHg 32%
    16:00 +27°C° 0 mm 13 mps 728 mmHg 32%
    17:00 +26°C° 0 mm 14 mps 727 mmHg 35%
    18:00 +24°C° 0 mm 14 mps 727 mmHg 39%
    19:00 +22°C° 0 mm 14 mps 727 mmHg 42%
    20:00 +20°C° 0 mm 14 mps 727 mmHg 46%
    21:00 +19°C° 0 mm 15 mps 728 mmHg 50%
    22:00 +18°C° 0 mm 15 mps 728 mmHg 54%
    23:00 +17°C° 0 mm 15 mps 728 mmHg 57%

    Tomorrow, 20 April, Saturday

    Time Temperature Precipitation Wind Pressure Humidity
    00:00 +17°C° 0 mm 15 mps 727 mmHg 59%
    01:00 +15°C° 0 mm 15 mps 727 mmHg 61%
    02:00 +15°C° 0 mm 14 mps 727 mmHg 63%
    03:00 +15°C° 0 mm 14 mps 726 mmHg 64%
    04:00 +14°C° 0 mm 13 mps 726 mmHg 66%
    05:00 +14°C° 0 mm 13 mps 726 mmHg 66%
    06:00 +14°C° 0 mm 13 mps 726 mmHg 66%
    07:00 +14°C° 0 mm 13 mps 726 mmHg 66%
    08:00 +17°C° 0 mm 13 mps 726 mmHg 59%
    09:00 +18°C° 0 mm 14 mps 726 mmHg 53%
    10:00 +20°C° 0 mm 14 mps 726 mmHg 46%
    11:00 +23°C° 0 mm 14 mps 726 mmHg 43%
    12:00 +24°C° 0 mm 14 mps 725 mmHg 39%
    13:00 +26°C° 0 mm 14 mps 725 mmHg 35%
    14:00 +27°C° 0 mm 14 mps 724 mmHg 33%
    15:00 +27°C° 0 mm 13 mps 724 mmHg 32%
    16:00 +28°C° 0 mm 13 mps 723 mmHg 30%
    17:00 +27°C° 0 mm 12 mps 723 mmHg 34%
    18:00 +24°C° 0 mm 12 mps 723 mmHg 38%
    19:00 +23°C° 0 mm 12 mps 723 mmHg 42%
    20:00 +21°C° 0 mm 12 mps 724 mmHg 46%
    21:00 +19°C° 0 mm 11 mps 724 mmHg 51%
    22:00 +18°C° 0 mm 11 mps 724 mmHg 55%
    23:00 +18°C° 0 mm 11 mps 724 mmHg 58%

    Day after tomorrow, 21 April, Sunday

    Time Temperature Precipitation Wind Pressure Humidity
    00:00 +17°C° 0 mm 11 mps 724 mmHg 60%
    01:00 +16°C° 0 mm 11 mps 723 mmHg 63%
    02:00 +16°C° 0 mm 11 mps 723 mmHg 64%
    03:00 +16°C° 0 mm 11 mps 722 mmHg 66%
    04:00 +14°C° 0 mm 12 mps 722 mmHg 67%
    05:00 +16°C° 0 mm 11 mps 721 mmHg 66%
    06:00 +16°C° 0 mm 11 mps 721 mmHg 65%
    07:00 +16°C° 0 mm 11 mps 721 mmHg 63%
    08:00 +18°C° 0 mm 11 mps 721 mmHg 55%
    09:00 +21°C° 0 mm 10 mps 721 mmHg 47%
    10:00 +23°C° 0 mm 10 mps 721 mmHg 39%
    11:00 +26°C° 0 mm 9 mps 721 mmHg 34%
    12:00 +28°C° 0 mm 8 mps 721 mmHg 28%
    13:00 +30°C° 0 mm 7 mps 721 mmHg 23%
    14:00 +33°C° 0 mm 7 mps 720 mmHg 18%
    15:00 +34°C° 0 mm 7 mps 720 mmHg 14%
    16:00 +36°C° 0 mm 6 mps 720 mmHg 10%
    17:00 +35°C° 0 mm 6 mps 719 mmHg 10%
    18:00 +34°C° 0 mm 5 mps 719 mmHg 10%
    19:00 +33°C° 0 mm 5 mps 718 mmHg 10%
    20:00 +32°C° 0 mm 5 mps 718 mmHg 13%
    21:00 +30°C° 0 mm 5 mps 719 mmHg 15%
    22:00 +29°C° 0 mm 4 mps 719 mmHg 17%
    23:00 +27°C° 0 mm 5 mps 719 mmHg 28%

    22 April, Monday

    Time Temperature Precipitation Wind Pressure Humidity
    00:00 +25°C° 0 mm 5 mps 719 mmHg 38%
    01:00 +22°C° 0 mm 5 mps 719 mmHg 48%
    02:00 +22°C° 0 mm 5 mps 718 mmHg 48%
    03:00 +21°C° 0 mm 4 mps 718 mmHg 49%
    04:00 +21°C° 0 mm 4 mps 717 mmHg 50%
    05:00 +22°C° 0 mm 5 mps 717 mmHg 41%
    06:00 +22°C° 0 mm 5 mps 717 mmHg 32%
    07:00 +23°C° 0 mm 5 mps 717 mmHg 24%
    08:00 +23°C° 0 mm 7 mps 717 mmHg 27%
    09:00 +24°C° 0 mm 9 mps 718 mmHg 30%
    10:00 +24°C° 0 mm 11 mps 718 mmHg 33%
    11:00 +24°C° 0 mm 11 mps 718 mmHg 31%
    12:00 +26°C° 0 mm 11 mps 718 mmHg 28%
    13:00 +26°C° 0 mm 12 mps 719 mmHg 25%
    14:00 +27°C° 0 mm 12 mps 719 mmHg 24%
    15:00 +27°C° 0 mm 12 mps 719 mmHg 24%
    16:00 +27°C° 0 mm 12 mps 719 mmHg 23%
    17:00 +27°C° 0 mm 10 mps 719 mmHg 25%
    18:00 +26°C° 0 mm 8 mps 720 mmHg 26%
    19:00 +26°C° 0 mm 7 mps 720 mmHg 27%
    20:00 +24°C° 0 mm 6 mps 721 mmHg 29%
    21:00 +23°C° 0 mm 4 mps 721 mmHg 31%
    22:00 +24°C° 0 mm 3 mps 722 mmHg 33%
    23:00 +22°C° 0 mm 3 mps 721 mmHg 35%

    23 April, Tuesday

    Time Temperature Precipitation Wind Pressure Humidity
    00:00 +21°C° 0 mm 3 mps 721 mmHg 36%
    01:00 +21°C° 0 mm 2 mps 721 mmHg 37%
    02:00 +20°C° 0 mm 2 mps 721 mmHg 39%
    03:00 +20°C° 0 mm 1 mps 721 mmHg 40%
    04:00 +18°C° 0 mm 0 mps 721 mmHg 42%
    05:00 +18°C° 0 mm 0 mps 721 mmHg 41%
    06:00 +18°C° 0 mm 0 mps 722 mmHg 40%
    07:00 +19°C° 0 mm 0 mps 722 mmHg 38%
    08:00 +20°C° 0 mm 0 mps 723 mmHg 34%
    09:00 +22°C° 0 mm 0 mps 723 mmHg 30%
    10:00 +25°C° 0 mm 1 mps 724 mmHg 26%
    11:00 +26°C° 0 mm 1 mps 724 mmHg 24%
    12:00 +28°C° 0 mm 2 mps 724 mmHg 22%
    13:00 +29°C° 0 mm 3 mps 724 mmHg 20%
    14:00 +29°C° 0 mm 3 mps 723 mmHg 19%
    15:00 +29°C° 0 mm 3 mps 723 mmHg 17%
    16:00 +30°C° 0 mm 4 mps 723 mmHg 16%
    17:00 +29°C° 0 mm 3 mps 723 mmHg 17%
    18:00 +29°C° 0 mm 2 mps 723 mmHg 18%
    19:00 +28°C° 0 mm 1 mps 724 mmHg 19%
    20:00 +28°C° 0 mm 1 mps 724 mmHg 20%
    21:00 +27°C° 0 mm 2 mps 724 mmHg 21%
    22:00 +26°C° 0 mm 2 mps 725 mmHg 22%
    23:00 +26°C° 0 mm 3 mps 725 mmHg 23%

    24 April, Wednesday

    Time Temperature Precipitation Wind Pressure Humidity
    00:00 +25°C° 0 mm 4 mps 724 mmHg 24%
    01:00 +25°C° 0 mm 5 mps 724 mmHg 25%
    02:00 +23°C° 0 mm 6 mps 724 mmHg 28%
    03:00 +22°C° 0 mm 7 mps 724 mmHg 32%
    04:00 +21°C° 0 mm 8 mps 724 mmHg 36%
    05:00 +21°C° 0 mm 8 mps 724 mmHg 38%
    06:00 +21°C° 0 mm 9 mps 723 mmHg 39%
    07:00 +21°C° 0 mm 9 mps 723 mmHg 40%
    08:00 +23°C° 0 mm 10 mps 723 mmHg 37%
    09:00 +26°C° 0 mm 10 mps 723 mmHg 34%
    10:00 +27°C° 0 mm 11 mps 724 mmHg 30%
    11:00 +29°C° 0 mm 10 mps 723 mmHg 29%
    12:00 +31°C° 0 mm 9 mps 723 mmHg 27%
    13:00 +32°C° 0 mm 8 mps 723 mmHg 25%
    14:00 +34°C° 0 mm 8 mps 723 mmHg 19%
    15:00 +35°C° 0 mm 8 mps 723 mmHg 13%
    16:00 +37°C° 0 mm 9 mps 722 mmHg 7%
    17:00 +35°C° 0 mm 7 mps 722 mmHg 7%
    18:00 +34°C° 0 mm 6 mps 722 mmHg 8%
    19:00 +33°C° 0 mm 5 mps 722 mmHg 8%
    20:00 +32°C° 0 mm 4 mps 723 mmHg 8%
    21:00 +30°C° 0 mm 3 mps 723 mmHg 9%
    22:00 +29°C° 0 mm 3 mps 724 mmHg 9%
    23:00 +28°C° 0 mm 3 mps 723 mmHg 15%
    Show more